Find Starlink 5850

NORAD ID: 57049 Int'l Des: 2023-088 Owner: SPXS Country: US Constellation: starlink operational
LEOCIRCULAR

Current View

Loading 3D Globe...

About Starlink 5850

Starlink 5850 (NORAD 57049) is a starlink constellation satellite (v1.5) launched Jun 22, 2023 by SPXS of US. It operates in LEO, CIRCULAR orbit with a mass of 305.00 kg.

Upcoming Passes

Passes for default location (London). Set your location on the main map for personalized predictions.

Altitude History

Loading altitude history...

Two-Line Element Set

1 57049U 23088B 26235.52229052 .00000564 00000-0 30005-4 0 9998
2 57049 43.0012 248.7998 0001278 267.9658 92.1047 15.27577936176037
Epoch: Aug 23, 2026 • Age: 22 hours

Current Status

Altitude 487.0 km
Apogee / Perigee N/A
Velocity 7.63 km/s
Sub-Earth Point 42.96°N, 156.27°W
Launch Date Jun 22, 2023
Age 3.1 years
Type internet

Technical Details

Classification Payload
Mass 305.00 kg
Dry Mass 290.00 kg
Total Mass 305.00 kg
Length 0.20 m
Diameter 2.80 m
Span 9.00 m
Shape Box + pan
Manufacturer SPXS
Bus Type Starlink
Phase Status In Orbit
Owner/State SPXS/US

Most Searched